Regional Weather Roundup
Issued by NWS

Home | Current Version | Previous Version | Graphics & Text | Print | Product List | Glossary On
Versions: 1 2 3 4 5 6 7 8 9 10 11 12 13 14 15 16 17 18 19 20 21 22 23 24 25 26 27 28 29 30 31 32 33 34 35 36 37 38 39 40 41 42 43 44 45 46 47 48 49 50
000
ASUS45 KBOU 242307
RWRCO

WEATHER ROUNDUP FOR COLORADO
NATIONAL WEATHER SERVICE DENVER/BOULDER CO
500 PM MDT THU JUL 24 2014

NOTE: "FAIR" INDICATES FEW OR NO CLOUDS BELOW 12000 FEET WITH NO
SIGNIFICANT WEATHER AND/OR OBSTRUCTIONS TO VISIBILITY.

COZ001>005-013-030-031-250000-
...NORTHWEST COLORADO...

CITY           SKY/WX    TMP DP  RH WIND       PRES   REMARKS
CRAIG          MOSUNNY   78  50  37 SW16G24   30.15F
HAYDEN         MOSUNNY   82  45  26 SW9G17    30.19F
MEEKER         MOSUNNY   87  47  24 SW10G18   30.18F
MOUNT WERNER   NOT AVBL
STEAMBOAT SPGS MOSUNNY   79  50  37 CALM      30.23F
WALDEN         PTSUNNY   73  43  33 SW16G25   30.31F
$$

COZ006>008-011-250000-
...WEST CENTRAL VALLEYS...

CITY           SKY/WX    TMP DP  RH WIND       PRES   REMARKS
GRAND JUNCTION PTSUNNY   92  45  19 W5        30.05F
MONTROSE       CLOUDY    74  55  51 SE24G35   30.23R
EAGLE          PTSUNNY   79  50  36 SW14      30.25F
RIFLE          PTSUNNY   86  50  28 SE10      30.12F
DELTA          CLOUDY    82  56  42 S10G17    30.14F
NUCLA          CLOUDY    81  57  44 SE13      30.23F
$$

COZ017>023-064>068-250000-
...SOUTHWEST COLORADO...

CITY           SKY/WX    TMP DP  RH WIND       PRES   REMARKS
DURANGO        PTSUNNY   80  50  34 N16G23    30.24F
CORTEZ         MOSUNNY   87  47  24 SW7       30.17F
PAGOSA SPRINGS PTSUNNY   80  42  26 W12       30.33F
TELLURIDE      TSTM      57  54  88 SE5       30.51R
WOLF CREEK PAS NOT AVBL
$$

COZ009-010-012-014-032>034-037-058>063-250000-
...CENTRAL COLORADO...

CITY           SKY/WX    TMP DP  RH WIND       PRES   REMARKS
ASPEN          CLOUDY    67  56  67 SW8       30.35F
BUENA VISTA    CLOUDY    82  40  22 W16G22    30.30R
COPPER MTN     CLOUDY    61  41  48 W22G31    30.68F
BERTHOUD PASS  RAIN      52  37  58 W21G31    30.71F
COTTONWOOD PAS CLOUDY    73  39  29 W10G21    30.47F THUNDER
GUNNISON       CLOUDY    73  45  35 SW21      30.34F
KREMMLING      PTSUNNY   79  43  27 S15       30.29F THUNDER
LEADVILLE      CLOUDY    63  42  46 NW14G25   30.52R
MONARCH PASS   CLOUDY    61  37  41 W24       30.76F
SALIDA         CLOUDY   N/A N/A N/A SW20G29   30.31S
SUNLIGHT       CLOUDY    63  52  67 CALM      30.61F
WILKERSON PASS PTSUNNY   63  34  34 W10G21    30.61F THUNDER
$$

COZ069>075-250000-
...SAN LUIS VALLEY/SANGRE DE CRISTO MOUNTAINS...

CITY           SKY/WX    TMP DP  RH WIND       PRES   REMARKS
ALAMOSA        SUNNY     86  42  21 S12       30.25F
LA VETA PASS   MOSUNNY   75  39  27 SW8G21    30.50F
SAGUACHE       DRIZZLE   73  46  38 W5        30.32S
$$

COZ035-036-038>040-250000-
...NORTHERN COLORADO FRONT RANGE...

CITY           SKY/WX    TMP DP  RH WIND       PRES   REMARKS
DENVER INTL AP PTSUNNY   94  42  16 N10       30.04F
DMNS CITY PARK   N/A     94  46  19 N5        30.01F
AURORA         PTSUNNY   92  46  20 N2        30.06F
FRONT RANGE AP PTSUNNY   93  41  16 NW3       30.05
ERIE MUNI ARPT MOSUNNY   93  47  20 NE14G22   30.02S
BOULDER MUN AP MOSUNNY   91  50  24 NE10      30.03F
CENTENNIAL     PTSUNNY   90  42  18 CALM      30.07F
BROOMFIELD     PTSUNNY   91  46  21 NE12      30.06F
FORT COLLINS   PTSUNNY   91  54  27 NE8       30.01F
LONGMONT       PTSUNNY   96  49  20 E8        30.03F
$$

COZ041-046-047-076>085-087-088-250000-
...PIKES PEAK/PALMER DIVIDE AND SOUTHERN FOOTHILLS...

CITY           SKY/WX    TMP DP  RH WIND       PRES   REMARKS
COLO. SPRINGS  MOSUNNY   94  43  17 SE16G22   30.08F
A. F. ACADEMY  MOSUNNY   87  44  22 N5        30.12F
ELLICOTT       MOSUNNY   92  41  17 S15       30.08F
FALCON         MOSUNNY   89  41  19 S13G22    30.16F
FORT CARSON    PTSUNNY   91  46  20 CALM      30.04F
LIMON          MOSUNNY   91  45  20 S17       30.02S
MONUMENT HILL  PTSUNNY   81  43  26 E13G20    30.19F
TRINIDAD       SUNNY     96  40  14 S18       30.05F
$$

COZ042>045-048>051-090-091-250000-
...NORTHEAST COLORADO...

CITY           SKY/WX    TMP DP  RH WIND       PRES   REMARKS
GREELEY ARPT   CLOUDY    86  59  39 N14       30.00F
AKRON          CLOUDY    87  48  25 NW23G33   29.98R
BURLINGTON     MOSUNNY   99  37  11 S21G28    29.92F
WRAY             N/A     94  46  19 W21G28    29.87F
STERLING       CLOUDY    79  61  53 W22G43    30.00R
HOLYOKE        TSTM      82  57  42 NW25      29.89R
FORT MORGAN    CLOUDY    92  36  14 NW6       29.97F
$$

COZ086-089-092>099-250000-
...SOUTHEAST COLORADO...

CITY           SKY/WX    TMP DP  RH WIND       PRES   REMARKS
PUEBLO         SUNNY     99  38  12 SE10      29.93F
LA JUNTA       SUNNY    101  40  12 S9        29.93F
LAMAR          SUNNY    102  41  12 S14G28    29.88F
SPRINGFIELD      N/A     95  44  17 S24G38    30.00F
$$


USA.gov is the U.S. government's official web portal to all federal, state and local government web resources and services.